User: anonymous   Login
Location: Blue Mountain Vista Observatory
(40.6992°N, 75.9422°W)
Time: 19:47:32
(UTC-04:00)
Language:

Cosmos 1222 Rocket - Orbit

View from above orbital plane
View from above orbital plane
View from above satellite
View from above satellite

Ground track
Ground track

The orbit data is extracted from the following two-line orbital elements,

1 12072U 80093B   15088.85826386  .00429866  79121-4  79115-3 0  9995
2 12072 081.1664 327.3504 0004929 064.1756 296.0026 16.01197496890913
Epoch (UTC): 29 March 2015 20:35:53
Eccentricity: 0.0004929
inclination: 81.1664°
perigee height: 268 km
apogee height: 274 km
right ascension of ascending node: 327.3504°
argument of perigee: 64.1756°
revolutions per day: 16.01197496
mean anomaly at epoch: 296.0026°
orbit number at epoch: 89091

The dashed part of the orbit path shows where the satellite is in the earth's shadow,  

DLR